www.pogodaiklimat.ru

Погода и климат >> Архив погоды >> Австралия >> Charleville Aero


ПОГОДА в Charleville Aero

  • Прогноз погоды в Charleville Aero
  • Монитор погоды в Charleville Aero
  • Климат города

АРХИВ ПОГОДЫ в Charleville Aero

Время (UTC), дата Ветер
(напр.,м/с)
 
Видим.   Явления Облачность Т
(С)
Тd
(С)
f
(%)
Тe
(С)
Тes
(С)
Комфортность P
(гПа)
Po
(гПа)
Тmin
(С)
Tmax
(С)
R
(мм)
R24
(мм)
S
(см)
23 9.08 С 4 н/о н/о +14.2 -6.1 24 +13 +13 1021.6 985.6
00 10.08 С 5 н/о н/о +19.0 -6.6 17 +19 +19 1021.6 985.6
02 10.08 С 6 н/о н/о +25.3 -7.2 11 +23 +23 комфорт 1019.5 983.6 +5.8
03 10.08 С 5 н/о н/о +26.8 -7.3 10 +24 +24 комфорт 1018.5 982.6
05 10.08 С 5 н/о н/о +28.3 -7.6 9 +25 +25 комфорт 1016.8 981.0
06 10.08 С 5 н/о н/о +28.5 -10.6 7 +25 +25 комфорт 1016.5 980.7
08 10.08 СЗ 4 н/о н/о +25.1 -8.6 10 +22 +22 комфорт 1017.0 981.2
09 10.08 С 3 н/о н/о +23.1 -8.9 11 +21 +21 комфорт 1017.7 981.9
11 10.08 С 2 н/о н/о +14.1 -8.5 20 +14 +14 1018.8 982.9
12 10.08 С 2 н/о н/о +12.6 -8.0 23 +13 +13 1019.1 983.2
14 10.08 С 3 н/о н/о +14.2 -6.6 23 +14 +14 1019.1 983.2 +28.9
15 10.08 С 4 н/о н/о +13.2 -5.4 27 +12 +12 1019.0 983.1
17 10.08 С 1 н/о н/о +8.2 -5.3 38 +9 +9 1018.6 982.7
18 10.08 СВ 1 н/о н/о +8.0 -3.8 43 +9 +9 1018.2 982.4
20 10.08 С 4 н/о н/о +10.4 -1.9 42 +9 +9 1018.9 983.0
21 10.08 СВ 4 н/о н/о +10.4 -1.0 45 +9 +9 1019.5 983.6
23 10.08 С 5 н/о н/о +17.2 +1.6 35 +17 +17 1020.9 985.0
00 11.08 С 5 н/о н/о +22.8 +3.9 29 +23 +23 комфорт 1020.9 985.0
02 11.08 СЗ 6 н/о н/о +26.0 +3.9 24 +25 +25 комфорт 1020.1 984.2 +8.0
03 11.08 СЗ 3 н/о н/о +27.7 +3.4 21 +26 +26 жарко 1019.0 983.1
05 11.08 ЮЗ 3 н/о н/о +28.5 -0.6 15 +26 +26 жарко 1017.4 981.6
06 11.08 З 4 н/о н/о +28.6 -0.5 15 +26 +26 жарко 1017.3 981.5
08 11.08 штиль 0 н/о н/о +23.8 +0.2 21 +23 +23 комфорт 1017.8 982.0
09 11.08 Ю 2 н/о н/о +19.6 +0.6 28 +21 +21 комфорт 1018.2 982.4
11 11.08 Ю 2 н/о н/о +15.8 +0.8 36 +16 +16 1019.3 983.4
12 11.08 Ю 4 н/о н/о +19.3 +0.8 29 +20 +20 1019.6 983.7
14 11.08 штиль 0 н/о н/о +14.0 +0.3 39 +14 +14 1019.8 983.9 +29.4
15 11.08 штиль 0 н/о н/о +13.3 +0.3 41 +13 +13 1019.9 984.0
17 11.08 штиль 0 н/о н/о +11.5 +0.3 46 +11 +11 1020.0 984.1
18 11.08 штиль 0 н/о н/о +10.2 0.0 49 +10 +10 1020.2 984.3
20 11.08 Ю 3 н/о н/о +11.3 +0.1 46 +10 +10 1021.5 985.5
21 11.08 Ю 3 н/о н/о +11.3 +0.4 47 +10 +10 1022.4 986.4
23 11.08 ЮВ 5 н/о н/о +17.7 +1.2 33 +17 +17 1023.0 987.0
00 12.08 В 4 н/о н/о +21.0 +0.8 26 +21 +21 комфорт 1022.6 986.6
02 12.08 Ю 3 н/о н/о +26.1 +1.4 20 +25 +25 комфорт 1021.2 985.2 +9.3
03 12.08 В 2 н/о н/о +27.4 +1.0 18 +25 +25 комфорт 1020.1 984.2
05 12.08 СЗ 2 н/о н/о +28.7 +1.3 17 +26 +26 жарко 1018.6 982.7
06 12.08 З 4 н/о н/о +28.8 +1.3 17 +27 +27 жарко 1018.4 982.5
08 12.08 Ю 3 н/о н/о +25.0 +0.5 20 +24 +24 комфорт 1019.6 983.7
09 12.08 Ю 3 н/о н/о +21.7 +0.8 25 +21 +21 комфорт 1020.2 984.3
11 12.08 ЮВ 3 н/о н/о +17.9 +0.6 31 +18 +18 1021.6 985.6
12 12.08 Ю 3 н/о н/о +16.9 +0.5 33 +17 +17 1021.6 985.6
14 12.08 ЮВ 2 н/о н/о +12.5 +0.9 45 +12 +12 1021.8 985.8 +29.4
15 12.08 ЮВ 2 н/о н/о +13.2 +1.2 44 +13 +13 1021.8 985.8
17 12.08 С 2 н/о н/о +10.2 +1.3 54 +10 +10 1021.4 985.4
18 12.08 штиль 0 н/о н/о +8.9 +0.6 56 +9 +9 1021.2 985.2
20 12.08 штиль 0 н/о н/о +7.3 +0.1 60 +7 +7 1022.1 986.1
21 12.08 штиль 0 н/о н/о +13.4 -0.1 39 +13 +13 1022.5 986.5
23 12.08 С 2 н/о н/о +17.3 +0.9 33 +18 +18 1023.6 987.6
00 13.08 С 3 н/о н/о +21.5 +1.7 27 +21 +21 комфорт 1023.7 987.7
02 13.08 ЮВ 2 н/о н/о +27.3 -2.5 14 +25 +25 комфорт 1022.4 986.4 +6.9
03 13.08 С 3 н/о н/о +28.0 -3.0 13 +25 +25 комфорт 1021.0 985.1
05 13.08 З 2 н/о н/о +29.1 -3.2 12 +26 +26 жарко 1019.4 983.5
06 13.08 Ю 3 н/о н/о +29.0 -2.2 13 +26 +26 жарко 1019.1 983.2
08 13.08 Ю 2 н/о н/о +24.7 -3.6 15 +23 +23 комфорт 1019.6 983.7
09 13.08 ЮВ 3 н/о н/о +19.9 -3.0 21 +20 +20 1019.9 984.0
11 13.08 ЮЗ 1 н/о н/о +15.3 -3.1 28 +17 +17 1020.9 985.0
12 13.08 штиль 0 н/о н/о +14.0 -2.8 31 +14 +14 1021.3 985.3
14 13.08 штиль 0 н/о н/о +11.2 -2.9 37 +11 +11 1021.0 985.1 +29.6
15 13.08 штиль 0 н/о н/о +10.2 -2.8 40 +10 +10 1020.9 985.0
17 13.08 Ю 1 н/о н/о +8.6 -2.9 44 +10 +10 1020.6 984.7
18 13.08 штиль 0 н/о н/о +8.0 -3.2 45 +8 +8 1020.3 984.4
20 13.08 штиль 0 н/о н/о +7.2 -2.5 50 +7 +7 1020.7 984.8
21 13.08 СВ 2 н/о н/о +8.3 -2.3 47 +7 +7 1020.9 985.0
23 13.08 СЗ 2 н/о н/о +17.8 -1.4 27 +19 +19 1021.8 985.8
00 14.08 штиль 0 н/о н/о +23.1 -1.1 20 +22 +22 комфорт 1022.0 986.0
02 14.08 ЮВ 4 н/о н/о +27.2 -3.6 13 +24 +24 комфорт 1019.4 983.5 +7.3
03 14.08 В 4 н/о н/о +28.2 -2.8 13 +25 +25 комфорт 1018.6 982.7
05 14.08 ЮЗ 3 н/о н/о +28.7 -3.5 12 +26 +26 жарко 1017.3 981.5
06 14.08 З 3 н/о н/о +28.9 -3.3 12 +26 +26 жарко 1017.0 981.2
08 14.08 З 2 н/о н/о +24.8 -2.7 16 +23 +23 комфорт 1017.5 981.7
09 14.08 штиль 0 н/о н/о +20.2 -2.2 22 +20 +20 1017.9 982.1
11 14.08 штиль 0 н/о н/о +15.4 -2.1 30 +15 +15 1019.1 983.2
12 14.08 штиль 0 н/о н/о +14.5 -1.6 33 +15 +15 1018.9 983.0
14 14.08 штиль 0 н/о н/о +12.7 -1.6 37 +13 +13 1018.1 982.3 +29.7
15 14.08 штиль 0 н/о н/о +11.8 -2.0 38 +12 +12 1017.8 982.0
17 14.08 штиль 0 н/о н/о +11.2 -1.5 41 +11 +11 1017.2 981.4
18 14.08 С 3 н/о н/о +12.9 -1.4 37 +12 +12 1016.8 981.0
20 14.08 С 3 н/о н/о +12.7 -2.0 36 +12 +12 1017.7 981.9
21 14.08 С 3 н/о н/о +12.5 -2.1 36 +12 +12 1018.4 982.5
23 14.08 С 5 н/о н/о +20.9 -2.2 21 +21 +21 комфорт 1018.7 982.8
00 15.08 С 5 н/о н/о +25.4 -4.0 14 +23 +23 комфорт 1018.5 982.6
02 15.08 С 6 н/о н/о +29.3 -3.0 12 +26 +26 жарко 1016.3 980.5 +11.1
03 15.08 С 6 н/о н/о +30.4 -3.3 11 +27 +27 жарко 1014.7 979.0
05 15.08 СЗ 5 н/о н/о +31.7 -2.3 11 +28 +28 жарко 1012.7 977.0
06 15.08 СЗ 6 н/о н/о +31.8 -2.3 11 +28 +28 жарко 1011.9 976.3
08 15.08 СЗ 4 н/о н/о +28.7 -3.5 12 +26 +26 жарко 1011.9 976.3
09 15.08 СЗ 2 н/о н/о +25.1 -4.2 14 +23 +23 комфорт 1012.1 976.5
11 15.08 С 4 н/о н/о +25.4 -3.1 15 +23 +23 комфорт 1012.5 976.9
12 15.08 С 4 н/о н/о +24.6 -2.0 17 +23 +23 комфорт 1012.5 976.9
14 15.08 С 3 н/о н/о +22.1 -0.6 22 +21 +21 комфорт 1012.5 976.9 +32.3
15 15.08 С 3 н/о н/о +18.8 -1.6 25 +19 +19 1012.8 977.1
17 15.08 С 3 н/о н/о +16.0 -0.7 32 +16 +16 1012.0 976.4
18 15.08 С 4 н/о н/о +16.2 -0.1 33 +16 +16 1011.9 976.3
20 15.08 С 3 н/о н/о +14.2 +0.5 39 +14 +14 1013.1 977.4
21 15.08 С 4 н/о н/о +14.3 +1.2 41 +13 +13 1013.8 978.1
23 15.08 С 8 н/о н/о +23.7 +5.1 30 +24 +24 комфорт 1014.3 978.6
00 16.08 С 10 н/о н/о +26.6 +5.0 25 +26 +26 жарко 1014.0 978.3
02 16.08 С 10 н/о н/о +29.9 +3.8 19 +28 +28 жарко 1012.0 976.4 +13.3
03 16.08 СЗ 8 н/о н/о +31.0 +1.4 15 +28 +28 жарко 1011.0 975.4
05 16.08 СЗ 6 н/о н/о +31.9 -1.0 12 +29 +29 жарко 1009.6 974.1
06 16.08 З 5 н/о н/о +32.1 -0.9 12 +29 +29 жарко 1009.3 973.8
08 16.08 З 3 н/о н/о +29.4 -0.9 14 +27 +27 жарко 1010.2 974.6
09 16.08 З 2 н/о н/о +23.9 -1.1 19 +23 +23 комфорт 1010.9 975.3
11 16.08 штиль 0 н/о н/о +18.3 0.0 29 +18 +18 1012.1 976.5
12 16.08 З 1 н/о н/о +16.7 -0.1 32 +18 +18 1013.0 977.3
14 16.08 штиль 0 н/о н/о +14.1 -0.4 37 +14 +14 1013.4 977.7 +33.1
15 16.08 штиль 0 н/о н/о +12.8 -0.4 40 +13 +13 1013.4 977.7
17 16.08 С 2 н/о н/о +12.6 +0.4 43 +12 +12 1012.9 977.2
18 16.08 штиль 0 н/о н/о +11.2 0.0 46 +11 +11 1013.2 977.5
20 16.08 штиль 0 н/о н/о +10.3 +0.1 49 +10 +10 1014.1 978.4
21 16.08 штиль 0 н/о н/о +9.8 +0.2 51 +10 +10 1015.0 979.3

 

Местоположение метеостанции Charleville Aero (Квинсленд, Австралия): широта -26.41 долгота 146.26 высота над уровнем моря 303 м.

В архиве по умолчанию представлена погода в Charleville Aero за последнюю неделю. Архивные данные за месяц целиком и за предыдущие месяцы, начиная с января 2011 года, Вы можете получить, выбрав интересующий диапазон дат из раскрывающегося списка и нажав кнопку "Ввод!".

Внимание! Время в таблицах - всемирное. Для получения местного времени необходимо прибавить поправку, которая в Charleville Aero равна 10 ч.

Смотрите также архив погоды в соседних городах и на ближайших метеорологических станциях:

Погода в Blackall Airport (Квинсленд, Австралия) (237 км)
Погода в Roma Airport (Квинсленд, Австралия) (251 км)
Погода в St George Airport (Квинсленд, Австралия) (295 км)
Погода в Thargomindah Airport (Квинсленд, Австралия) (299 км)
Погода в Lochington (Квинсленд, Австралия) (304 км)
Погода в Rolleston Airport (Квинсленд, Австралия) (321 км)
Погода в Emerald Airport (Квинсленд, Австралия) (371 км)
Погода в Longreach Airport (Квинсленд, Австралия) (387 км)
Погода в Miles Constance Street (Квинсленд, Австралия) (391 км)
Погода в Bourke Airport Aws (Новый Южный Уэльс, Австралия) (404 км)

Пояснения к столбцам:

Ветер - указаны скорость ветра в м/с - средняя за 10 мин, порывы в срок и между сроками (в фигурных скобках) и направление, откуда дует ветер: С - северный, СВ - северо-восточный, В - восточный, ЮВ - юго-восточный, Ю - южный, ЮЗ - юго-западный, З - западный, СЗ - северо-западный.
Видимость - горизонтальная дальность видимости в метрах или километрах. При видимости от 1 до 10 км при отсутствии осадков обычно наблюдается дымка, при ухудшении видимости до 1 км и менее - туман. В сухую погоду видимость может ухудшаться дымом, пылью или мглою.
Явления - указаны атмосферные явления, наблюдавшиеся в срок или в последний час перед сроком; фигурными скобками обозначены явления, наблюдавшиеся между сроками (за 1-3 часа до срока); квадратными скобками обозначены град или гололедные отложения с указанием их диаметра в мм.
Облачность - указаны через наклонную черту общая и нижняя облачность в баллах и высота нижней границы облаков в метрах; квадратными скобками обозначены формы облаков: Ci - перистые, Cs - перисто-слоистые, Cc - перисто-кучевые, Ac - высококучевые, As - высокослоистые, Sc - слоисто-кучевые, Ns - слоисто-дождевые, Cu - кучевые, Cb - кучево-дождевые. Подробнее классификацию облаков см. в Атласе облаков (PDF).
T - Температура воздуха - температура, измеренная на высоте 2 м над землей.
Td - Температура точки росы - температура, при понижении до которой содержащийся в воздухе водяной пар достигнет насыщения.
f - Относительная влажность воздуха - влажноcть воздуха, измеренная на высоте 2 м над землей.
Te - Эффективная температура - температура, которую ощущает одетый по сезону человек в тени. Характеристика душности погоды. При расчете учитывается влияние влажности воздуха и скорости ветра на теплоощущения человека.
Tes - Эффективная температура на солнце - температура, которую ощущает человек, с поправкой на солнечный нагрев. Характеристика знойности погоды. Зависит от высоты солнца над горизонтом, облачности и скорости ветра. Ночью, в пасмурную погоду, а также при ветре 12 м/с и более поправка равна нулю.
P - Атмосферное давление - приведенное к уровню моря атмосферное давление.
Po - Атмосферное давление - измеренное на уровне метеостанции атмосферное давление.
Tmin - Минимальная температура - минимум температуры воздуха на высоте 2 м над землей.
Tmax - Максимальная температура - максимум температуры воздуха на высоте 2 м над землей.
R - Количество осадков - Количество выпавших осадков за период времени, мм. При наведении курсора мыши на число - период времени, за который выпало указанное количество осадков.
R24 - Количество осадков - Количество выпавших осадков за 24 часа, мм.
S - Снежный покров - Высота снежного покрова, см. При наведении курсора мыши на число - состояние снежного покрова и степень покрытия местности в баллах.